Time,TemperatureF,DewpointF,PressureIn,WindDirection,WindDirectionDegrees,WindSpeedMPH,WindSpeedGustMPH,Humidity,HourlyPrecipIn,Conditions,Clouds,dailyrainin,SoftwareType,DateUTC
2014-01-10 00:00:00,12.2,8.6,30.54,ENE,68,0.0,0.0,85,0.00,,,-99.99,Weather View 32 v60,2014-01-10 05:00:00,
2014-01-10 00:05:00,11.3,8.2,30.55,ENE,68,0.0,0.0,87,0.00,,,-99.99,Weather View 32 v60,2014-01-10 05:05:00,
2014-01-10 00:10:00,11.2,8.1,30.55,ENE,68,0.0,0.0,87,0.00,,,-99.99,Weather View 32 v60,2014-01-10 05:10:00,
2014-01-10 00:15:00,11.1,8.0,30.55,ENE,68,0.0,0.0,87,0.00,,,-99.99,Weather View 32 v60,2014-01-10 05:15:00,
2014-01-10 00:20:00,11.0,7.9,30.55,ENE,68,0.0,0.0,87,0.00,,,-99.99,Weather View 32 v60,2014-01-10 05:20:00,
2014-01-10 00:25:00,10.9,8.1,30.55,ENE,68,0.0,0.0,88,0.00,,,-99.99,Weather View 32 v60,2014-01-10 05:25:00,
2014-01-10 00:30:00,10.8,8.0,30.55,ENE,68,0.0,0.0,88,0.00,,,-99.99,Weather View 32 v60,2014-01-10 05:30:00,
2014-01-10 00:35:00,10.7,7.9,30.55,ENE,68,0.0,0.0,88,0.00,,,-99.99,Weather View 32 v60,2014-01-10 05:35:00,
2014-01-10 00:40:00,10.7,7.9,30.55,ENE,68,0.0,0.0,88,0.00,,,-99.99,Weather View 32 v60,2014-01-10 05:40:00,
2014-01-10 00:45:00,10.8,8.2,30.54,ENE,68,0.0,0.0,89,0.00,,,-99.99,Weather View 32 v60,2014-01-10 05:45:00,
2014-01-10 00:50:00,10.8,8.2,30.54,ENE,68,0.0,0.0,89,0.00,,,-99.99,Weather View 32 v60,2014-01-10 05:50:00,
2014-01-10 00:55:00,10.8,8.2,30.55,ENE,68,0.0,0.0,89,0.00,,,-99.99,Weather View 32 v60,2014-01-10 05:55:00,
2014-01-10 01:00:00,10.8,8.2,30.55,ENE,68,0.0,0.0,89,0.00,,,-99.99,Weather View 32 v60,2014-01-10 06:00:00,
2014-01-10 01:05:00,10.8,8.2,30.54,ENE,68,0.0,0.0,89,0.00,,,-99.99,Weather View 32 v60,2014-01-10 06:05:00,
2014-01-10 01:10:00,10.8,8.2,30.54,ENE,68,0.0,0.0,89,0.00,,,-99.99,Weather View 32 v60,2014-01-10 06:10:00,
2014-01-10 01:15:00,10.8,8.2,30.54,ENE,68,0.0,0.0,89,0.00,,,-99.99,Weather View 32 v60,2014-01-10 06:15:00,
2014-01-10 01:20:00,10.9,8.3,30.54,ENE,68,0.0,0.0,89,0.00,,,-99.99,Weather View 32 v60,2014-01-10 06:20:00,
2014-01-10 01:25:00,10.9,8.3,30.55,ENE,68,0.0,0.0,89,0.00,,,-99.99,Weather View 32 v60,2014-01-10 06:25:00,
2014-01-10 01:30:00,10.8,8.2,30.54,ENE,68,0.0,0.0,89,0.00,,,-99.99,Weather View 32 v60,2014-01-10 06:30:00,
2014-01-10 01:35:00,10.8,8.2,30.53,ENE,68,0.0,0.0,89,0.00,,,-99.99,Weather View 32 v60,2014-01-10 06:35:00,
2014-01-10 01:40:00,10.9,8.5,30.54,ENE,68,0.0,0.0,90,0.00,,,-99.99,Weather View 32 v60,2014-01-10 06:40:00,
2014-01-10 01:45:00,10.9,8.5,30.54,ENE,68,0.0,0.0,90,0.00,,,-99.99,Weather View 32 v60,2014-01-10 06:45:00,
2014-01-10 01:50:00,10.9,8.5,30.54,ENE,68,0.0,0.0,90,0.00,,,-99.99,Weather View 32 v60,2014-01-10 06:50:00,
2014-01-10 01:55:00,10.9,8.5,30.54,ENE,68,0.0,0.0,90,0.00,,,-99.99,Weather View 32 v60,2014-01-10 06:55:00,
2014-01-10 02:00:00,10.9,8.5,30.54,ENE,68,0.0,0.0,90,0.00,,,-99.99,Weather View 32 v60,2014-01-10 07:00:00,
2014-01-10 02:05:00,11.0,8.6,30.53,ENE,68,0.0,0.0,90,0.00,,,-99.99,Weather View 32 v60,2014-01-10 07:05:00,
2014-01-10 02:10:00,11.2,8.8,30.53,ENE,68,0.0,0.0,90,0.00,,,-99.99,Weather View 32 v60,2014-01-10 07:10:00,
2014-01-10 02:15:00,11.4,9.0,30.53,ENE,68,0.0,0.0,90,0.00,,,-99.99,Weather View 32 v60,2014-01-10 07:15:00,
2014-01-10 02:20:00,11.5,9.4,30.53,ENE,68,0.0,0.0,91,0.00,,,-99.99,Weather View 32 v60,2014-01-10 07:20:00,
2014-01-10 02:25:00,11.6,9.5,30.53,ENE,68,0.0,0.0,91,0.00,,,-99.99,Weather View 32 v60,2014-01-10 07:25:00,
2014-01-10 02:30:00,11.9,9.8,30.53,East,90,0.0,0.0,91,0.00,,,-99.99,Weather View 32 v60,2014-01-10 07:30:00,
2014-01-10 02:35:00,12.1,10.0,30.52,East,90,0.0,1.0,91,0.00,,,-99.99,Weather View 32 v60,2014-01-10 07:35:00,
2014-01-10 02:40:00,12.4,10.3,30.52,SSE,158,0.0,1.0,91,0.00,,,-99.99,Weather View 32 v60,2014-01-10 07:40:00,
2014-01-10 02:45:00,12.6,10.5,30.52,SSE,158,0.0,1.0,91,0.00,,,-99.99,Weather View 32 v60,2014-01-10 07:45:00,
2014-01-10 02:50:00,12.8,10.4,30.52,South,180,0.0,1.0,90,0.00,,,-99.99,Weather View 32 v60,2014-01-10 07:50:00,
2014-01-10 02:55:00,13.0,10.6,30.52,South,180,0.0,1.0,90,0.00,,,-99.99,Weather View 32 v60,2014-01-10 07:55:00,
2014-01-10 03:00:00,13.2,10.8,30.52,South,180,0.0,1.0,90,0.00,,,-99.99,Weather View 32 v60,2014-01-10 08:00:00,
2014-01-10 03:05:00,13.4,11.0,30.52,SSE,158,0.0,1.0,90,0.00,,,-99.99,Weather View 32 v60,2014-01-10 08:05:00,
2014-01-10 03:10:00,13.5,11.1,30.52,South,180,0.0,1.0,90,0.00,,,-99.99,Weather View 32 v60,2014-01-10 08:10:00,
2014-01-10 03:15:00,13.7,11.1,30.51,South,180,0.0,1.0,89,0.00,,,-99.99,Weather View 32 v60,2014-01-10 08:15:00,
2014-01-10 03:20:00,13.9,11.3,30.51,South,180,0.0,1.0,89,0.00,,,-99.99,Weather View 32 v60,2014-01-10 08:20:00,
2014-01-10 03:25:00,14.1,11.5,30.51,South,180,0.0,1.0,89,0.00,,,-99.99,Weather View 32 v60,2014-01-10 08:25:00,
2014-01-10 03:30:00,14.3,11.7,30.51,South,180,0.0,1.0,89,0.00,,,-99.99,Weather View 32 v60,2014-01-10 08:30:00,
2014-01-10 03:35:00,14.6,12.0,30.51,South,180,0.0,1.0,89,0.00,,,-99.99,Weather View 32 v60,2014-01-10 08:35:00,
2014-01-10 03:40:00,14.8,11.9,30.50,South,180,0.0,1.0,88,0.00,,,-99.99,Weather View 32 v60,2014-01-10 08:40:00,
2014-01-10 03:45:00,15.1,12.2,30.50,South,180,0.0,1.0,88,0.00,,,-99.99,Weather View 32 v60,2014-01-10 08:45:00,
2014-01-10 03:50:00,15.4,12.5,30.50,South,180,0.0,1.0,88,0.00,,,-99.99,Weather View 32 v60,2014-01-10 08:50:00,
2014-01-10 03:55:00,15.6,12.4,30.50,South,180,0.0,1.0,87,0.00,,,-99.99,Weather View 32 v60,2014-01-10 08:55:00,
2014-01-10 04:00:00,15.7,12.5,30.50,South,180,0.0,1.0,87,0.00,,,-99.99,Weather View 32 v60,2014-01-10 09:00:00,
2014-01-10 04:05:00,15.9,12.5,30.49,South,180,0.0,1.0,86,0.00,,,-99.99,Weather View 32 v60,2014-01-10 09:05:00,
2014-01-10 04:10:00,16.0,12.6,30.49,South,180,0.0,1.0,86,0.00,,,-99.99,Weather View 32 v60,2014-01-10 09:10:00,
2014-01-10 04:15:00,16.1,12.4,30.49,South,180,0.0,1.0,85,0.00,,,-99.99,Weather View 32 v60,2014-01-10 09:15:00,
2014-01-10 04:20:00,16.2,12.5,30.49,South,180,0.0,1.0,85,0.00,,,-99.99,Weather View 32 v60,2014-01-10 09:20:00,
2014-01-10 04:25:00,16.3,12.6,30.49,South,180,0.0,1.0,85,0.00,,,-99.99,Weather View 32 v60,2014-01-10 09:25:00,
2014-01-10 04:30:00,16.5,12.8,30.49,South,180,0.0,1.0,85,0.00,,,-99.99,Weather View 32 v60,2014-01-10 09:30:00,
2014-01-10 04:35:00,16.6,12.6,30.48,South,180,0.0,1.0,84,0.00,,,-99.99,Weather View 32 v60,2014-01-10 09:35:00,
2014-01-10 04:45:00,16.9,12.9,30.48,South,180,0.0,1.0,84,0.00,,,-99.99,Weather View 32 v60,2014-01-10 09:45:00,
2014-01-10 04:50:00,17.1,13.1,30.48,South,180,0.0,0.0,84,0.00,,,-99.99,Weather View 32 v60,2014-01-10 09:50:00,
2014-01-10 04:55:00,17.2,13.2,30.47,South,180,0.0,0.0,84,0.00,,,-99.99,Weather View 32 v60,2014-01-10 09:55:00,
2014-01-10 05:00:00,17.3,13.3,30.47,South,180,0.0,0.0,84,0.00,,,-99.99,Weather View 32 v60,2014-01-10 10:00:00,
2014-01-10 05:05:00,17.4,13.4,30.46,South,180,0.0,0.0,84,0.00,,,-99.99,Weather View 32 v60,2014-01-10 10:05:00,
2014-01-10 05:15:00,17.6,13.6,30.46,South,180,0.0,0.0,84,0.00,,,-99.99,Weather View 32 v60,2014-01-10 10:15:00,
2014-01-10 05:20:00,17.8,13.8,30.46,South,180,0.0,0.0,84,0.00,,,-99.99,Weather View 32 v60,2014-01-10 10:20:00,
2014-01-10 05:25:00,17.9,14.2,30.46,South,180,0.0,0.0,85,0.00,,,-99.99,Weather View 32 v60,2014-01-10 10:25:00,
2014-01-10 05:28:00,16.3,12.6,30.49,South,180,0.0,1.0,85,0.00,,,-99.99,Weather View 32 v60,2014-01-10 10:28:00,
2014-01-10 05:35:00,18.1,14.4,30.47,South,180,0.0,0.0,85,0.00,,,-99.99,Weather View 32 v60,2014-01-10 10:35:00,
2014-01-10 05:40:00,16.8,12.8,30.48,South,180,0.0,1.0,84,0.00,,,-99.99,Weather View 32 v60,2014-01-10 10:40:00,
2014-01-10 05:50:00,18.4,14.6,30.47,South,180,0.0,0.0,85,0.00,,,-99.99,Weather View 32 v60,2014-01-10 10:50:00,
2014-01-10 05:55:00,18.4,14.6,30.47,South,180,0.0,0.0,85,0.00,,,-99.99,Weather View 32 v60,2014-01-10 10:55:00,
2014-01-10 06:00:00,18.5,15.0,30.47,South,180,0.0,0.0,86,0.00,,,-99.99,Weather View 32 v60,2014-01-10 11:00:00,
2014-01-10 06:05:00,18.5,15.0,30.46,South,180,0.0,0.0,86,0.00,,,-99.99,Weather View 32 v60,2014-01-10 11:05:00,
2014-01-10 06:10:00,17.5,13.5,30.46,South,180,0.0,0.0,84,0.00,,,-99.99,Weather View 32 v60,2014-01-10 11:10:00,
2014-01-10 06:25:00,17.9,14.2,30.46,South,180,0.0,0.0,85,0.00,,,-99.99,Weather View 32 v60,2014-01-10 11:25:00,
2014-01-10 06:30:00,18.0,14.3,30.46,South,180,0.0,0.0,85,0.00,,,-99.99,Weather View 32 v60,2014-01-10 11:30:00,
2014-01-10 06:45:00,18.3,14.6,30.47,South,180,0.0,0.0,85,0.00,,,-99.99,Weather View 32 v60,2014-01-10 11:45:00,
2014-01-10 07:10:00,19.6,17.4,30.46,South,180,0.0,0.0,91,0.00,,,-99.99,Weather View 32 v60,2014-01-10 12:10:00,
2014-01-10 07:15:00,18.6,15.4,30.46,South,180,0.0,0.0,87,0.00,,,-99.99,Weather View 32 v60,2014-01-10 12:15:00,
2014-01-10 07:20:00,19.9,17.7,30.46,South,180,0.0,0.0,91,0.00,,,-99.99,Weather View 32 v60,2014-01-10 12:20:00,
2014-01-10 07:30:00,20.1,17.9,30.46,South,180,0.0,0.0,91,0.00,,,-99.99,Weather View 32 v60,2014-01-10 12:30:00,
2014-01-10 07:34:00,18.9,15.9,30.46,South,180,0.0,0.0,88,0.00,,,-99.99,Weather View 32 v60,2014-01-10 12:34:00,
2014-01-10 07:35:00,20.3,18.1,30.46,South,180,0.0,0.0,91,0.00,,,-99.99,Weather View 32 v60,2014-01-10 12:35:00,
2014-01-10 07:40:00,19.0,16.3,30.46,South,180,0.0,0.0,89,0.00,,,-99.99,Weather View 32 v60,2014-01-10 12:40:00,
2014-01-10 07:45:00,19.1,16.4,30.46,South,180,0.0,0.0,89,0.00,,,-99.99,Weather View 32 v60,2014-01-10 12:45:00,
2014-01-10 07:55:00,19.3,16.9,30.46,South,180,0.0,0.0,90,0.00,,,-99.99,Weather View 32 v60,2014-01-10 12:55:00,
2014-01-10 08:04:00,19.5,17.0,30.46,South,180,0.0,0.0,90,0.00,,,-99.99,Weather View 32 v60,2014-01-10 13:04:00,
2014-01-10 08:25:00,20.0,17.8,30.46,South,180,0.0,0.0,91,0.00,,,-99.99,Weather View 32 v60,2014-01-10 13:25:00,
2014-01-10 08:30:00,22.5,20.5,30.45,South,180,0.0,0.0,92,0.00,,,-99.99,Weather View 32 v60,2014-01-10 13:30:00,
2014-01-10 08:35:00,22.7,20.7,30.45,South,180,0.0,0.0,92,0.00,,,-99.99,Weather View 32 v60,2014-01-10 13:35:00,
2014-01-10 08:40:00,20.5,18.5,30.45,South,180,0.0,0.0,92,0.00,,,-99.99,Weather View 32 v60,2014-01-10 13:40:00,
2014-01-10 08:45:00,20.7,18.7,30.45,South,180,0.0,0.0,92,0.00,,,-99.99,Weather View 32 v60,2014-01-10 13:45:00,
2014-01-10 08:55:00,21.1,19.1,30.45,South,180,0.0,0.0,92,0.00,,,-99.99,Weather View 32 v60,2014-01-10 13:55:00,
2014-01-10 09:04:00,21.5,19.5,30.45,South,180,0.0,0.0,92,0.00,,,-99.99,Weather View 32 v60,2014-01-10 14:04:00,
2014-01-10 09:10:00,21.7,19.7,30.45,South,180,0.0,0.0,92,0.00,,,-99.99,Weather View 32 v60,2014-01-10 14:10:00,
2014-01-10 09:15:00,21.9,19.9,30.45,South,180,0.0,0.0,92,0.00,,,-99.99,Weather View 32 v60,2014-01-10 14:15:00,
2014-01-10 09:24:00,22.3,20.3,30.45,South,180,0.0,0.0,92,0.00,,,-99.99,Weather View 32 v60,2014-01-10 14:24:00,
2014-01-10 09:25:00,25.3,22.8,30.44,South,180,0.0,1.0,90,0.00,,,-99.99,Weather View 32 v60,2014-01-10 14:25:00,
2014-01-10 09:30:00,22.5,20.5,30.45,South,180,0.0,0.0,92,0.00,,,-99.99,Weather View 32 v60,2014-01-10 14:30:00,
2014-01-10 09:35:00,25.7,23.2,30.44,South,180,0.0,1.0,90,0.00,,,-99.99,Weather View 32 v60,2014-01-10 14:35:00,
2014-01-10 09:40:00,25.9,23.4,30.44,South,180,0.0,1.0,90,0.00,,,-99.99,Weather View 32 v60,2014-01-10 14:40:00,
2014-01-10 09:45:00,23.2,21.2,30.45,South,180,0.0,0.0,92,0.00,,,-99.99,Weather View 32 v60,2014-01-10 14:45:00,
2014-01-10 10:00:00,23.9,21.7,30.45,South,180,0.0,0.0,91,0.00,,,-99.99,Weather View 32 v60,2014-01-10 15:00:00,
2014-01-10 10:15:00,24.8,22.3,30.44,South,180,0.0,1.0,90,0.00,,,-99.99,Weather View 32 v60,2014-01-10 15:15:00,
2014-01-10 10:25:00,27.7,24.9,30.41,SSE,158,0.0,3.0,89,0.00,,,-99.99,Weather View 32 v60,2014-01-10 15:25:00,
2014-01-10 10:29:00,25.4,22.9,30.44,South,180,0.0,1.0,90,0.00,,,-99.99,Weather View 32 v60,2014-01-10 15:29:00,
2014-01-10 10:30:00,27.8,25.0,30.41,South,180,0.0,3.0,89,0.00,,,-99.99,Weather View 32 v60,2014-01-10 15:30:00,
2014-01-10 10:45:00,28.3,25.5,30.39,South,180,0.0,3.0,89,0.00,,,-99.99,Weather View 32 v60,2014-01-10 15:45:00,
2014-01-10 10:50:00,26.3,23.5,30.43,South,180,0.0,1.0,89,0.00,,,-99.99,Weather View 32 v60,2014-01-10 15:50:00,
2014-01-10 11:00:00,28.5,25.4,30.38,South,180,0.0,3.0,88,0.00,,,-99.99,Weather View 32 v60,2014-01-10 16:00:00,
2014-01-10 11:04:00,27.0,24.2,30.42,South,180,0.0,3.0,89,0.00,,,-99.99,Weather View 32 v60,2014-01-10 16:04:00,
2014-01-10 11:05:00,28.6,25.5,30.38,SSE,158,0.0,1.0,88,0.00,,,-99.99,Weather View 32 v60,2014-01-10 16:05:00,
2014-01-10 11:10:00,27.2,24.4,30.42,South,180,0.0,3.0,89,0.00,,,-99.99,Weather View 32 v60,2014-01-10 16:10:00,
2014-01-10 11:19:00,27.5,24.7,30.41,South,180,0.0,3.0,89,0.00,,,-99.99,Weather View 32 v60,2014-01-10 16:19:00,
2014-01-10 11:20:00,28.5,25.4,30.37,SSE,158,0.0,2.0,88,0.00,,,-99.99,Weather View 32 v60,2014-01-10 16:20:00,
2014-01-10 11:30:00,28.6,25.8,30.36,South,180,0.0,2.0,89,0.00,,,-99.99,Weather View 32 v60,2014-01-10 16:30:00,
2014-01-10 11:31:00,27.8,25.0,30.41,South,180,0.0,3.0,89,0.00,,,-99.99,Weather View 32 v60,2014-01-10 16:31:00,
2014-01-10 11:40:00,28.2,25.4,30.40,South,180,0.0,3.0,89,0.00,,,-99.99,Weather View 32 v60,2014-01-10 16:40:00,
2014-01-10 11:49:00,28.5,25.4,30.38,South,180,0.0,3.0,88,0.00,,,-99.99,Weather View 32 v60,2014-01-10 16:49:00,
2014-01-10 11:55:00,28.5,25.4,30.38,SE,135,0.0,3.0,88,0.00,,,-99.99,Weather View 32 v60,2014-01-10 16:55:00,
2014-01-10 12:10:00,28.6,25.5,30.38,South,180,0.0,2.0,88,0.00,,,-99.99,Weather View 32 v60,2014-01-10 17:10:00,
2014-01-10 12:15:00,28.5,25.4,30.37,South,180,0.0,2.0,88,0.00,,,-99.99,Weather View 32 v60,2014-01-10 17:15:00,
2014-01-10 12:24:00,28.5,25.4,30.37,South,180,0.0,2.0,88,0.00,,,-99.99,Weather View 32 v60,2014-01-10 17:24:00,
2014-01-10 12:30:00,29.9,27.3,30.35,South,180,0.0,4.0,90,0.00,,,-99.99,Weather View 32 v60,2014-01-10 17:30:00,
2014-01-10 12:32:00,28.6,25.8,30.36,South,180,0.0,2.0,89,0.00,,,-99.99,Weather View 32 v60,2014-01-10 17:32:00,
2014-01-10 12:40:00,28.9,26.1,30.36,SSE,158,0.0,2.0,89,0.00,,,-99.99,Weather View 32 v60,2014-01-10 17:40:00,
2014-01-10 12:45:00,29.0,26.2,30.36,South,180,0.0,2.0,89,0.00,,,-99.99,Weather View 32 v60,2014-01-10 17:45:00,
2014-01-10 12:55:00,29.1,26.3,30.36,South,180,0.0,2.0,89,0.00,,,-99.99,Weather View 32 v60,2014-01-10 17:55:00,
2014-01-10 13:00:00,29.2,26.4,30.36,SSE,158,0.0,2.0,89,0.00,,,-99.99,Weather View 32 v60,2014-01-10 18:00:00,
2014-01-10 13:05:00,29.2,26.4,30.36,SSE,158,0.0,2.0,89,0.00,,,-99.99,Weather View 32 v60,2014-01-10 18:05:00,
2014-01-10 13:15:00,29.3,26.5,30.35,South,180,0.0,4.0,89,0.00,,,-99.99,Weather View 32 v60,2014-01-10 18:15:00,
2014-01-10 13:25:00,29.7,27.1,30.35,South,180,0.0,4.0,90,0.00,,,-99.99,Weather View 32 v60,2014-01-10 18:25:00,
2014-01-10 13:33:00,29.9,27.3,30.35,South,180,0.0,4.0,90,0.00,,,-99.99,Weather View 32 v60,2014-01-10 18:33:00,
2014-01-10 13:45:00,30.4,27.8,30.34,South,180,0.0,4.0,90,0.00,,,-99.99,Weather View 32 v60,2014-01-10 18:45:00,
2014-01-10 13:50:00,32.4,29.5,30.32,SSE,158,0.0,2.0,89,0.00,,,-99.99,Weather View 32 v60,2014-01-10 18:50:00,
2014-01-10 13:54:00,30.7,28.1,30.33,SSE,158,0.0,4.0,90,0.00,,,-99.99,Weather View 32 v60,2014-01-10 18:54:00,
2014-01-10 14:00:00,31.0,28.4,30.33,SSE,158,0.0,4.0,90,0.00,,,-99.99,Weather View 32 v60,2014-01-10 19:00:00,
2014-01-10 14:10:00,31.6,29.0,30.33,SSE,158,0.0,2.0,90,0.00,,,-99.99,Weather View 32 v60,2014-01-10 19:10:00,
2014-01-10 14:15:00,32.7,30.1,30.31,SSE,158,0.0,1.0,90,0.00,,,-99.99,Weather View 32 v60,2014-01-10 19:15:00,
2014-01-10 14:19:00,31.8,28.9,30.33,South,180,0.0,2.0,89,0.00,,,-99.99,Weather View 32 v60,2014-01-10 19:19:00,
2014-01-10 14:25:00,31.9,29.0,30.32,South,180,0.0,2.0,89,0.00,,,-99.99,Weather View 32 v60,2014-01-10 19:25:00,
2014-01-10 14:30:00,32.0,29.1,30.32,South,180,0.0,2.0,89,0.00,,,-99.99,Weather View 32 v60,2014-01-10 19:30:00,
2014-01-10 14:40:00,32.2,29.3,30.32,South,180,0.0,2.0,89,0.00,,,-99.99,Weather View 32 v60,2014-01-10 19:40:00,
2014-01-10 14:45:00,32.3,29.4,30.32,South,180,0.0,2.0,89,0.00,,,-99.99,Weather View 32 v60,2014-01-10 19:45:00,
2014-01-10 14:50:00,33.3,31.0,30.30,SSE,158,0.0,4.0,91,0.00,,,-99.99,Weather View 32 v60,2014-01-10 19:50:00,
2014-01-10 14:55:00,32.4,29.5,30.31,SSE,158,0.0,2.0,89,0.00,,,-99.99,Weather View 32 v60,2014-01-10 19:55:00,
2014-01-10 15:00:00,32.5,29.6,30.31,South,180,0.0,1.0,89,0.00,,,-99.99,Weather View 32 v60,2014-01-10 20:00:00,
2014-01-10 15:05:00,32.6,29.7,30.31,SSE,158,0.0,1.0,89,0.00,,,-99.99,Weather View 32 v60,2014-01-10 20:05:00,
2014-01-10 15:20:00,32.8,30.2,30.31,South,180,0.0,1.0,90,0.00,,,-99.99,Weather View 32 v60,2014-01-10 20:20:00,
2014-01-10 15:25:00,32.8,30.2,30.31,South,180,0.0,3.0,90,0.00,,,-99.99,Weather View 32 v60,2014-01-10 20:25:00,
2014-01-10 15:34:00,32.9,30.3,30.31,South,180,0.0,4.0,90,0.00,,,-99.99,Weather View 32 v60,2014-01-10 20:34:00,
2014-01-10 15:40:00,33.1,30.8,30.30,South,180,0.0,4.0,91,0.00,,,-99.99,Weather View 32 v60,2014-01-10 20:40:00,
2014-01-10 15:45:00,33.2,30.9,30.30,South,180,0.0,4.0,91,0.00,,,-99.99,Weather View 32 v60,2014-01-10 20:45:00,
2014-01-10 15:55:00,33.4,31.1,30.30,South,180,0.0,4.0,91,0.00,,,-99.99,Weather View 32 v60,2014-01-10 20:55:00,
2014-01-10 16:00:00,33.4,31.1,30.29,South,180,0.0,4.0,91,0.00,,,-99.99,Weather View 32 v60,2014-01-10 21:00:00,
2014-01-10 16:09:00,33.4,31.1,30.30,South,180,0.0,4.0,91,0.01,,,-99.99,Weather View 32 v60,2014-01-10 21:09:00,
2014-01-10 16:15:00,33.4,31.1,30.30,South,180,0.0,4.0,91,0.01,,,-99.99,Weather View 32 v60,2014-01-10 21:15:00,
2014-01-10 16:25:00,33.3,31.0,30.29,ESE,113,0.0,4.0,91,0.01,,,-99.99,Weather View 32 v60,2014-01-10 21:25:00,
2014-01-10 16:30:00,33.1,30.8,30.30,SSE,158,0.0,0.0,91,0.01,,,-99.99,Weather View 32 v60,2014-01-10 21:30:00,
2014-01-10 16:35:00,32.1,30.6,30.28,SSE,158,0.0,0.0,94,0.00,,,-99.99,Weather View 32 v60,2014-01-10 21:35:00,
2014-01-10 16:39:00,32.7,30.4,30.29,South,180,0.0,0.0,91,0.01,,,-99.99,Weather View 32 v60,2014-01-10 21:39:00,
2014-01-10 16:40:00,32.2,30.7,30.28,South,180,0.0,0.0,94,0.00,,,-99.99,Weather View 32 v60,2014-01-10 21:40:00,
2014-01-10 16:45:00,32.6,30.5,30.29,South,180,0.0,0.0,92,0.01,,,-99.99,Weather View 32 v60,2014-01-10 21:45:00,
2014-01-10 16:54:00,32.4,30.3,30.29,SSE,158,0.0,0.0,92,0.01,,,-99.99,Weather View 32 v60,2014-01-10 21:54:00,
2014-01-10 17:00:00,32.3,30.2,30.29,SSE,158,0.0,0.0,92,0.01,,,-99.99,Weather View 32 v60,2014-01-10 22:00:00,
2014-01-10 17:10:00,32.3,30.5,30.28,South,180,0.0,0.0,93,0.00,,,-99.99,Weather View 32 v60,2014-01-10 22:10:00,
2014-01-10 17:19:00,32.2,30.4,30.28,South,180,0.0,0.0,93,0.00,,,-99.99,Weather View 32 v60,2014-01-10 22:19:00,
2014-01-10 17:25:00,32.2,30.4,30.29,South,180,0.0,0.0,93,0.00,,,-99.99,Weather View 32 v60,2014-01-10 22:25:00,
2014-01-10 17:45:00,32.3,30.8,30.29,South,180,0.0,0.0,94,0.00,,,-99.99,Weather View 32 v60,2014-01-10 22:45:00,
2014-01-10 17:55:00,32.4,31.1,30.29,South,180,0.0,0.0,95,0.00,,,-99.99,Weather View 32 v60,2014-01-10 22:55:00,
2014-01-10 18:05:00,32.7,31.4,30.29,South,180,0.0,1.0,95,0.00,,,-99.99,Weather View 32 v60,2014-01-10 23:05:00,
2014-01-10 18:10:00,32.8,31.5,30.29,South,180,0.0,3.0,95,0.00,,,-99.99,Weather View 32 v60,2014-01-10 23:10:00,
2014-01-10 18:19:00,32.9,31.6,30.29,South,180,0.0,3.0,95,0.00,,,-99.99,Weather View 32 v60,2014-01-10 23:19:00,
2014-01-10 18:25:00,32.9,31.6,30.29,South,180,0.0,3.0,95,0.00,,,-99.99,Weather View 32 v60,2014-01-10 23:25:00,
2014-01-10 18:35:00,32.9,31.6,30.29,South,180,0.0,3.0,95,0.00,,,-99.99,Weather View 32 v60,2014-01-10 23:35:00,
2014-01-10 18:45:00,33.0,31.7,30.29,South,180,0.0,3.0,95,0.00,,,-99.99,Weather View 32 v60,2014-01-10 23:45:00,
2014-01-10 18:55:00,33.0,31.7,30.29,South,180,0.0,3.0,95,0.00,,,-99.99,Weather View 32 v60,2014-01-10 23:55:00,
2014-01-10 19:04:00,33.1,32.1,30.29,South,180,0.0,3.0,96,0.00,,,-99.99,Weather View 32 v60,2014-01-11 00:04:00,
2014-01-10 19:10:00,33.2,32.2,30.29,South,180,0.0,2.0,96,0.00,,,-99.99,Weather View 32 v60,2014-01-11 00:10:00,
2014-01-10 19:20:00,33.3,32.3,30.29,South,180,0.0,2.0,96,0.00,,,-99.99,Weather View 32 v60,2014-01-11 00:20:00,
2014-01-10 19:30:00,33.3,32.3,30.28,South,180,0.0,2.0,96,0.00,,,-99.99,Weather View 32 v60,2014-01-11 00:30:00,
2014-01-10 19:36:00,33.3,32.3,30.29,South,180,0.0,2.0,96,0.00,,,-99.99,Weather View 32 v60,2014-01-11 00:36:00,
2014-01-10 19:45:00,33.5,32.5,30.29,South,180,0.0,2.0,96,0.00,,,-99.99,Weather View 32 v60,2014-01-11 00:45:00,
2014-01-10 19:55:00,33.5,32.5,30.28,South,180,0.0,2.0,96,0.00,,,-99.99,Weather View 32 v60,2014-01-11 00:55:00,
2014-01-10 20:04:00,33.7,32.9,30.28,SSE,158,0.0,2.0,97,0.00,,,-99.99,Weather View 32 v60,2014-01-11 01:04:00,
2014-01-10 20:10:00,33.8,33.0,30.28,South,180,0.0,1.0,97,0.00,,,-99.99,Weather View 32 v60,2014-01-11 01:10:00,
2014-01-10 20:15:00,33.9,33.1,30.28,South,180,0.0,1.0,97,0.00,,,-99.99,Weather View 32 v60,2014-01-11 01:15:00,
2014-01-10 20:25:00,33.9,33.1,30.28,South,180,0.0,1.0,97,0.00,,,-99.99,Weather View 32 v60,2014-01-11 01:25:00,
2014-01-10 20:34:00,34.0,33.2,30.27,South,180,0.0,1.0,97,0.00,,,-99.99,Weather View 32 v60,2014-01-11 01:34:00,
2014-01-10 20:40:00,34.0,33.2,30.27,South,180,0.0,1.0,97,0.00,,,-99.99,Weather View 32 v60,2014-01-11 01:40:00,
2014-01-10 20:45:00,34.1,33.3,30.27,SSE,158,0.0,1.0,97,0.00,,,-99.99,Weather View 32 v60,2014-01-11 01:45:00,
2014-01-10 20:54:00,34.1,33.3,30.27,South,180,0.0,1.0,97,0.00,,,-99.99,Weather View 32 v60,2014-01-11 01:54:00,
2014-01-10 21:00:00,34.1,33.3,30.27,South,180,0.0,1.0,97,0.00,,,-99.99,Weather View 32 v60,2014-01-11 02:00:00,
2014-01-10 21:10:00,34.1,33.3,30.26,South,180,0.0,1.0,97,0.00,,,-99.99,Weather View 32 v60,2014-01-11 02:10:00,
2014-01-10 21:15:00,34.1,33.3,30.26,South,180,0.0,0.0,97,0.00,,,-99.99,Weather View 32 v60,2014-01-11 02:15:00,
2014-01-10 21:24:00,34.0,33.2,30.26,South,180,0.0,0.0,97,0.01,,,-99.99,Weather View 32 v60,2014-01-11 02:24:00,
2014-01-10 21:30:00,34.0,33.2,30.26,South,180,0.0,0.0,97,0.01,,,-99.99,Weather View 32 v60,2014-01-11 02:30:00,
2014-01-10 21:37:00,34.0,33.2,30.26,SSE,158,0.0,0.0,97,0.01,,,-99.99,Weather View 32 v60,2014-01-11 02:37:00,
2014-01-10 21:45:00,34.0,33.2,30.25,South,180,0.0,0.0,97,0.01,,,-99.99,Weather View 32 v60,2014-01-11 02:45:00,
2014-01-10 21:55:00,34.0,33.2,30.26,South,180,0.0,0.0,97,0.02,,,-99.99,Weather View 32 v60,2014-01-11 02:55:00,
2014-01-10 22:04:00,34.0,33.2,30.25,South,180,0.0,0.0,97,0.02,,,-99.99,Weather View 32 v60,2014-01-11 03:04:00,
2014-01-10 22:10:00,34.0,33.2,30.25,South,180,0.0,0.0,97,0.02,,,-99.99,Weather View 32 v60,2014-01-11 03:10:00,
2014-01-10 22:20:00,34.0,33.2,30.25,South,180,0.0,0.0,97,0.02,,,-99.99,Weather View 32 v60,2014-01-11 03:20:00,
2014-01-10 22:25:00,34.0,33.2,30.24,South,180,0.0,0.0,97,0.01,,,-99.99,Weather View 32 v60,2014-01-11 03:25:00,
2014-01-10 22:34:00,33.9,33.4,30.23,South,180,0.0,0.0,98,0.01,,,-99.99,Weather View 32 v60,2014-01-11 03:34:00,
2014-01-10 22:40:00,33.9,33.4,30.23,South,180,0.0,0.0,98,0.01,,,-99.99,Weather View 32 v60,2014-01-11 03:40:00,
2014-01-10 22:45:00,33.9,33.4,30.23,South,180,0.0,0.0,98,0.01,,,-99.99,Weather View 32 v60,2014-01-11 03:45:00,
2014-01-10 22:55:00,33.9,33.4,30.23,South,180,0.0,0.0,98,0.01,,,-99.99,Weather View 32 v60,2014-01-11 03:55:00,
2014-01-10 23:00:00,34.0,33.5,30.23,SSE,158,0.0,0.0,98,0.01,,,-99.99,Weather View 32 v60,2014-01-11 04:00:00,
2014-01-10 23:05:00,33.7,33.2,30.20,South,180,0.0,0.0,98,0.00,,,-99.99,Weather View 32 v60,2014-01-11 04:05:00,
2014-01-10 23:10:00,33.9,33.4,30.22,South,180,0.0,0.0,98,0.01,,,-99.99,Weather View 32 v60,2014-01-11 04:10:00,
2014-01-10 23:15:00,33.7,33.2,30.19,SSE,158,0.0,0.0,98,0.00,,,-99.99,Weather View 32 v60,2014-01-11 04:15:00,
2014-01-10 23:19:00,33.9,33.4,30.22,South,180,0.0,0.0,98,0.01,,,-99.99,Weather View 32 v60,2014-01-11 04:19:00,
2014-01-10 23:20:00,33.7,33.2,30.19,South,180,0.0,0.0,98,0.00,,,-99.99,Weather View 32 v60,2014-01-11 04:20:00,
2014-01-10 23:25:00,33.9,33.4,30.22,South,180,0.0,0.0,98,0.01,,,-99.99,Weather View 32 v60,2014-01-11 04:25:00,
2014-01-10 23:29:00,33.9,33.4,30.21,South,180,0.0,0.0,98,0.01,,,-99.99,Weather View 32 v60,2014-01-11 04:29:00,
2014-01-10 23:30:00,33.7,33.2,30.19,South,180,0.0,0.0,98,0.00,,,-99.99,Weather View 32 v60,2014-01-11 04:30:00,
2014-01-10 23:35:00,33.8,33.3,30.21,South,180,0.0,0.0,98,0.01,,,-99.99,Weather View 32 v60,2014-01-11 04:35:00,
2014-01-10 23:40:00,33.7,33.4,30.18,SSE,158,0.0,0.0,99,0.00,,,-99.99,Weather View 32 v60,2014-01-11 04:40:00,
2014-01-10 23:45:00,33.8,33.3,30.21,South,180,0.0,0.0,98,0.01,,,-99.99,Weather View 32 v60,2014-01-11 04:45:00,
2014-01-10 23:50:00,33.8,33.5,30.18,South,180,0.0,0.0,99,0.00,,,-99.99,Weather View 32 v60,2014-01-11 04:50:00,
2014-01-10 23:55:00,33.8,33.3,30.20,South,180,0.0,0.0,98,0.00,,,-99.99,Weather View 32 v60,2014-01-11 04:55:00,